Location: Civís
(42.4648°N, 1.4232°E)
Time: 18:41:07
(UTC+00:00)

Cosmos 1441 Rocket - Pass Details

Date: 21 November 2025
Orbit: 425 x 449 km, 81.1° (Epoch: 04 December)

Event Time Altitude Azimuth Distance (km) Brightness Sun altitude
Rises 05:54:54 0° 212° (SSW) 2,383 6.4 -10.7°
Reaches altitude 10° 05:57:07 10° 225° (SW) 1,519 5.3 -10.3°
Maximum altitude 06:00:01 27° 286° (WNW) 849 3.7 -9.8°
Drops below altitude 10° 06:02:55 10° 347° (NNW) 1,526 5.3 -9.3°
Sets 06:05:10 0° 359° (N) 2,396 6.4 -8.9°
